Find Starlink 31084

NORAD ID: 58630 Int'l Des: 2023-203 Owner: SPXS Country: US Constellation: starlink operational
LEOCIRCULAR

現在のビュー

3D地球を読み込み中...

About Starlink 31084

Starlink 31084 (NORAD 58630) is a starlink constellation satellite (v2 mini) launched Dec 23, 2023 by SPXS of US. It operates in LEO, CIRCULAR orbit with a mass of 730.00 kg.

Starlink 31084について

説明を読み込み中...

次回通過

Passes for default location (London). Set your location on the main map for personalized predictions.

高度履歴

Loading altitude history...

軌道要素

1 58630U 23203N 26177.71536377 .00001386 00000-0 59906-4 0 9995
2 58630 43.0020 174.9724 0001132 296.4782 63.5953 15.27560751140197
Epoch: Jun 26, 2026 • Age: 7 hours

現在のステータス

高度 484.1 km
速度 7.62 km/s
衛星直下点 -5.84°S, 80.43°E
打ち上げ日 Dec 23, 2023
運用期間 2.5 years
タイプ internet

技術仕様

分類 Payload
質量 730.00 kg
乾燥質量 700.00 kg
総質量 730.00 kg
長さ 0.30 m
直径 4.10 m
スパン 29.00 m
形状 Box + pan
製造者 SPXS
バスタイプ Starlink V2M
フェーズステータス In Orbit
所有者/国 SPXS/US

Most Searched